Tracking 35280 objects as of 7-Sep-2026
HD Live streaming from Space Station
objects crossing your sky now

AE2A

Track AE2A now!
10-day predictions


NORAD ID: 64591
Int'l Code: 2025-135BR
Launch date: June 23, 2025
Source: Japan (JPN)
Launch site: AIR FORCE WESTERN TEST RANGE (AFWTR)
Your satellite tracking list
Your tracking list is empty




NASA's NSSDC Master Catalog

Two Line Element Set (TLE):
1 64591U 25135BR  26250.61323010  .00004104  00000-0  35454-3 0  9995
2 64591  97.7761   5.3894 0006833  66.1396 294.0541 14.97769534 66297
Source of the keplerian elements: AFSPC